Simultaneous Nadir Overpasses (SNOs) Predictions

Prediction of SNOs between AQUA and METOP-A Satellite Orbit:

Table of predicted SNOs for the next 14.0 days since TLE Epoch: 12/7/2013
Index Date (AQUA) Time (AQUA) Lat,Lon (AQUA) SZA (AQUA ) Date (METOP-A) Time (METOP-A) Lat,Lon (METOP-A) SZA (METOP-A ) Distance(km) Time Diff (sec)
1 12/07/2013 13:58:56 -73.87, 144.38 83.53 12/07/2013 13:58:18 -73.85, 144.46 83.55 3.34 38
2 12/07/2013 14:48:24 73.89, -48.03 96.50 12/07/2013 14:48:57 73.89, -48.12 96.50 2.98 33
3 12/10/2013 09:33:09 -73.85,-149.12 83.27 12/10/2013 09:32:42 -73.83,-149.19 83.29 3.25 27
4 12/10/2013 10:22:38 73.93, 18.35 96.82 12/10/2013 10:23:20 73.91, 18.34 96.80 1.61 42
5 12/13/2013 04:17:42 73.17, 111.14 96.24 12/13/2013 04:16:37 73.10, 108.22 96.25 94.54 65
6 12/13/2013 05:07:21 -73.87, -82.71 83.03 12/13/2013 05:07:04 -73.85, -82.75 83.05 2.63 17
7 12/13/2013 05:56:50 73.95, 84.75 97.06 12/13/2013 05:57:42 73.93, 84.78 97.04 2.47 52
8 12/15/2013 23:52:02 73.60, 176.69 96.85 12/15/2013 23:50:51 73.56, 175.65 96.85 32.91 71
9 12/16/2013 00:41:33 -73.88, -16.27 82.86 12/16/2013 00:41:27 -73.86, -16.32 82.87 2.55 6
10 12/16/2013 01:31:02 73.96, 151.17 97.24 12/16/2013 01:32:05 73.94, 151.21 97.21 2.84 63
11 12/18/2013 19:26:17 73.81,-117.31 97.18 12/18/2013 19:25:09 73.82,-117.35 97.19 1.38 68
12 12/18/2013 20:15:44 -73.88, 50.19 82.76 12/18/2013 20:15:50 -73.86, 50.09 82.77 3.34 6




NCC Satellite Simultaneous Nadir Overpasses (SNOs) Prediction Service
